FW9176 Weather Reports


time (UTC)temp
C
wind
direction
speed
KPH
gust
KPH
rain 1hr
cm
rain 24hr
cm
rain mn
cm
humidity
%
barometer
mb
20260510130053 10 0 0.0 0.0 0.00 0.00 0.00 58 1016.1
20260510124557 10 0 0.0 1.6 0.00 0.00 0.00 60 1016.1
20260510123053 8 0 0.0 0.0 0.00 0.00 0.00 66 1015.6
20260510121551 7 0 0.0 0.0 0.00 0.00 0.00 68 1015.4
20260510120050 7 0 0.0 0.0 0.00 0.00 0.00 71 1015.3
20260510114556 6 0 0.0 1.6 0.00 0.00 0.00 73 1015.0
20260510113049 5 0 0.0 0.0 0.00 0.00 0.00 74 1014.7
20260510111547 5 0 0.0 0.0 0.00 0.00 0.00 75 1014.6
20260510110052 4 0 0.0 0.0 0.00 0.00 0.00 75 1014.3
20260510104553 4 0 0.0 0.0 0.00 0.00 0.00 75 1014.0
20260510103053 5 0 0.0 0.0 0.00 0.00 0.00 74 1014.0
20260510101559 5 0 0.0 0.0 0.00 0.00 0.00 73 1013.8
20260510100110 5 0 0.0 0.0 0.00 0.00 0.00 72 1013.4
20260510094556 5 0 0.0 0.0 0.00 0.00 0.00 71 1013.3
20260510093054 5 0 0.0 0.0 0.00 0.00 0.00 69 1013.3
20260510091549 6 0 0.0 0.0 0.00 0.00 0.00 67 1013.3
20260510090053 7 0 0.0 0.0 0.00 0.00 0.00 64 1013.2
20260510084552 7 0 0.0 0.0 0.00 0.00 0.00 60 1013.1
20260510083101 8 0 0.0 0.0 0.00 0.00 0.00 58 1013.1
20260510081551 8 58 0.0 1.6 0.00 0.00 0.00 57 1012.6
20260510080052 8 0 0.0 3.2 0.00 0.00 0.00 57 1012.5
20260510074546 8 0 0.0 3.2 0.00 0.00 0.00 58 1012.3
20260510073051 8 0 0.0 1.6 0.00 0.00 0.00 58 1012.2
20260510071558 9 0 0.0 1.6 0.00 0.00 0.00 61 1011.9
20260510070101 9 0 0.0 1.6 0.00 0.00 0.00 65 1011.7
20260510064550 8 0 0.0 1.6 0.00 0.00 0.00 69 1011.4
20260510063058 7 0 0.0 0.0 0.00 0.00 0.00 72 1011.1
20260510061555 7 0 0.0 0.0 0.00 0.00 0.00 74 1010.9
20260510060055 8 0 0.0 0.0 0.00 0.00 0.00 74 1010.7
20260510054552 8 0 0.0 0.0 0.00 0.00 0.00 74 1010.4
20260510053052 8 0 0.0 0.0 0.00 0.00 0.00 73 1010.3
20260510051601 8 0 0.0 0.0 0.00 0.00 0.00 72 1010.1
20260510050055 9 0 0.0 0.0 0.00 0.00 0.00 70 1010.0
20260510044555 9 0 0.0 0.0 0.00 0.00 0.00 68 1009.7
20260510043056 10 0 0.0 0.0 0.00 0.00 0.00 64 1009.5
20260510041551 10 0 0.0 0.0 0.00 0.00 0.00 61 1009.2
20260510040100 11 0 0.0 0.0 0.00 0.00 0.00 58 1009.2
20260510034551 11 0 0.0 0.0 0.00 0.00 0.00 55 1008.8
20260510033112 12 0 0.0 0.0 0.00 0.00 0.00 54 1008.8
20260510031559 12 0 0.0 0.0 0.00 0.00 0.00 52 1008.8
20260510030053 12 0 0.0 0.0 0.00 0.00 0.00 52 1008.7
20260510024556 12 0 0.0 0.0 0.00 0.00 0.00 51 1008.6
20260510023051 13 0 0.0 0.0 0.00 0.00 0.00 49 1008.2
20260510021552 13 0 0.0 3.2 0.00 0.00 0.00 48 1007.9
20260510020054 13 69 0.0 1.6 0.00 0.00 0.00 47 1007.4
20260510014558 13 0 0.0 1.6 0.00 0.00 0.00 46 1007.0
20260510013056 14 0 0.0 1.6 0.00 0.00 0.00 46 1006.5
20260510011557 15 0 0.0 3.2 0.00 0.00 0.00 45 1006.3
20260510004559 16 80 0.0 4.8 0.00 0.00 0.00 41 1005.4
20260510003111 20 52 1.6 11.3 0.00 0.00 0.00 36 1005.0
20260510001554 21 288 1.6 9.7 0.00 0.00 0.00 35 1004.5
20260509234604 22 301 3.2 14.5 0.00 0.00 0.00 33 1003.9
20260509233055 22 236 1.6 9.7 0.00 0.00 0.00 32 1003.6
20260509231558 22 318 3.2 11.3 0.00 0.00 0.00 32 1003.4
20260509230105 22 257 3.2 14.5 0.00 0.00 0.00 30 1003.2
20260509224554 22 13 6.4 27.4 0.00 0.00 0.00 29 1002.9
20260509223052 22 258 8.0 25.7 0.00 0.00 0.00 28 1002.8
20260509221552 23 252 3.2 16.1 0.00 0.00 0.00 28 1002.5
20260509220055 23 240 4.8 20.9 0.00 0.00 0.00 30 1002.4
20260509214554 23 52 6.4 14.5 0.00 0.00 0.00 28 1002.1
20260509213103 23 276 4.8 20.9 0.00 0.00 0.00 29 1001.7
20260509211603 23 285 1.6 22.5 0.00 0.00 0.00 30 1001.7
20260509204558 23 312 9.7 22.5 0.00 0.00 0.00 29 1001.7
20260509203056 23 304 6.4 20.9 0.00 0.00 0.00 29 1001.6
20260509201558 22 259 1.6 17.7 0.00 0.00 0.00 31 1001.7
20260509194556 23 302 4.8 20.9 0.00 0.00 0.00 31 1002.0
20260509193052 22 293 9.7 30.6 0.00 0.00 0.00 30 1002.1
20260509191550 22 260 4.8 16.1 0.00 0.00 0.00 29 1002.2
20260509190050 22 254 6.4 12.9 0.00 0.00 0.00 30 1001.8
20260509184551 22 249 3.2 14.5 0.00 0.00 0.00 34 1001.9
20260509183135 22 288 3.2 16.1 0.00 0.00 0.00 33 1002.0
20260509181608 22 269 4.8 17.7 0.00 0.00 0.00 32 1002.0
20260509180052 22 286 3.2 14.5 0.00 0.00 0.00 32 1002.2
20260509174550 22 262 3.2 11.3 0.00 0.00 0.00 42 1002.2
20260509173051 22 257 0.0 8.0 0.00 0.00 0.00 45 1002.2
20260509171600 21 266 1.6 9.7 0.00 0.00 0.00 48 1002.4
20260509170057 21 275 3.2 14.5 0.00 0.00 0.00 47 1002.4
20260509164559 21 0 0.0 8.0 0.00 0.00 0.00 52 1002.4
20260509163057 20 0 1.6 6.4 0.00 0.00 0.00 54 1002.4
20260509161554 20 278 0.0 9.7 0.00 0.00 0.00 57 1002.3
20260509160052 18 298 0.0 6.4 0.00 0.00 0.00 60 1002.4
20260509154556 18 236 1.6 8.0 0.00 0.00 0.00 65 1002.3
20260509153052 17 226 0.0 6.4 0.00 0.00 0.00 66 1002.3
20260509151552 17 263 0.0 6.4 0.00 0.00 0.00 64 1002.5
20260509150054 16 0 0.0 6.4 0.00 0.00 0.00 67 1002.5
20260509144552 16 0 0.0 8.0 0.00 0.00 0.00 69 1002.6
20260509143058 15 307 0.0 12.9 0.00 0.00 0.00 70 1002.2
20260509141606 15 292 1.6 9.7 0.00 0.00 0.00 71 1002.3
20260509140059 14 0 1.6 8.0 0.00 0.00 0.00 73 1002.2
20260509134558 14 0 1.6 6.4 0.00 0.00 0.00 74 1002.2
20260509133050 13 0 0.0 6.4 0.00 0.00 0.00 76 1002.3
20260509131551 13 301 0.0 16.1 0.00 0.00 0.00 76 1002.3